小惑星2006 SV301

2006 SV301

English version
Home page
Total 6,336 html files since Dec. 4, 1995
Updated on October 12, 2008

---------------------------------------------------------------------

・ プロフィール

・ 軌道要素

The following orbital elements are taken from MPO118178

Epoch 2007 Apr. 10.0 TT = JDT 2454200.5                 MPC
M   0.10342              (2000.0)            P               Q
n   0.08531284     Peri.   30.54020     -0.71342592     -0.69502090
a   5.1104577      Node   105.14629     +0.62276671     -0.68728391
e   0.4963194      Incl.    5.30654     +0.32122435     -0.21115581
P  11.6            H   14.3           G   0.15           U   2
From 136 observations at 2 oppositions, 1996-2007, mean residual 0".42.

・ 光度変化

        H = 14.1  G = 0.15

---------------------------------------------------------------------

軌道要素はMPCのEphemerides and Orbital Elementsに掲載されたものです。
光度グラフはComet for Windowsで作成したものです。

---------------------------------------------------------------------

Copyright(C) 1995-2008 Seiichi Yoshida (comet@aerith.net). All rights reserved.